This is the latest recevied weather packets stored in our database for station/object SQ6RR-11. If no packets are shown the sender has not sent any weather packets the latest 10 day(s).
| Time | Temp. | Humidity | Pressure | Rain* | Wind** | Luminosity | Snow |
|---|---|---|---|---|---|---|---|
| 1777704187 | 18.89° C | 30% | 1026.6 hPa | 0 mm | - | - | - |
| 1777703923 | 18.89° C | 33% | 1026.6 hPa | 0 mm | - | - | - |
| 1777703642 | 18.89° C | 32% | 1026.5 hPa | 0 mm | - | - | - |
| 1777703353 | 18.89° C | 38% | 1026.6 hPa | 0 mm | - | - | - |
| 1777703084 | 18.89° C | 42% | 1026.6 hPa | 0 mm | - | - | - |
| 1777702820 | 18.33° C | 45% | 1026.6 hPa | 0 mm | - | - | - |
| 1777702554 | 17.78° C | 48% | 1026.6 hPa | 0 mm | - | - | - |
| 1777702290 | 17.78° C | 51% | 1026.6 hPa | 0 mm | - | - | - |
| 1777702013 | 17.22° C | 55% | 1026.6 hPa | 0 mm | - | - | - |
| 1777701738 | 17.22° C | 58% | 1026.6 hPa | 0 mm | - | - | - |
| 1777701471 | 16.67° C | 61% | 1026.6 hPa | 0 mm | - | - | - |
| 1777701205 | 16.11° C | 62% | 1026.6 hPa | 0 mm | - | - | - |
| 1777700923 | 15.56° C | 63% | 1026.6 hPa | 0 mm | - | - | - |
| 1777700670 | 15.56° C | 65% | 1026.6 hPa | 0 mm | - | - | - |
| 1777700413 | 15° C | 66% | 1026.6 hPa | 0 mm | - | - | - |
| 1777700157 | 14.44° C | 68% | 1026.6 hPa | 0 mm | - | - | - |
| 1777699887 | 13.89° C | 69% | 1026.6 hPa | 0 mm | - | - | - |
| 1777699611 | 13.89° C | 71% | 1026.6 hPa | 0 mm | - | - | - |
| 1777699353 | 13.33° C | 73% | 1026.6 hPa | 0 mm | - | - | - |
| 1777699078 | 12.78° C | 76% | 1026.7 hPa | 0 mm | - | - | - |
| 1777698793 | 12.22° C | 77% | 1026.7 hPa | 0 mm | - | - | - |
| 1777698522 | 11.67° C | 78% | 1026.7 hPa | 0 mm | - | - | - |
| 1777698257 | 11.11° C | 78% | 1026.6 hPa | 0 mm | - | - | - |
| 1777697978 | 10.56° C | 78% | 1026.6 hPa | 0 mm | - | - | - |
| 1777697708 | 10° C | 78% | 1026.6 hPa | 0 mm | - | - | - |
* Rain latest hour (hover to see other rain measurements)
** Current wind speed in m/s (hover to see current wind gust speed)